Race Coverage Navigation

TS # 51 / Hanover, PA  2019

 


TS STATS
TS Distance 40.3 
Total Distance 2950.44 
Miles To Go 91.21 
TS Climbing 2929 
Total Climbing
TS  Elevation
TS  Net Elevation 4663 
Map Filename Open Map 
Directions Filename  
Latitude 39.76 
Longitude -76.96 
Google Map  TimeStation Map 


TS Arrival Data
Arr Ord  #/Name Arrival DT TS Dst Avg This TS Avg Overall
 1 377 - Christoph Strasser  06/19/2019 18:56 40.3  14.39  15.19 
 2 T411 - team alpha - tischlerei groemmer  06/21/2019 2:43 40.3  20.49  22.46 
 3 279 - Marko Baloh  06/21/2019 2:47 40.3  11.25  13.05 
 4 T800 - Backstedt Racing Project 14  06/21/2019 3:17 40.3  22.18  22.39 
 5 609 - Jakob Olsen  06/21/2019 5:31 40.3  11.51  12.87 
 6 T404 - Gentlemen of speed  06/21/2019 12:33 40.3  19.04  20.88 
 7 T401 - Data Techniques powered by Networks Centre  06/21/2019 16:42 40.3  18.46  20.28 
 8 T805 - Team Oceanside  06/21/2019 17:03 40.3  19.98  20.28 
 9 T807 - Team ZOE International  06/21/2019 17:41 40.3  19.04  20.2 
 10 T407 - Julian Becker   06/21/2019 19:54 40.3  17.4  19.85 
 11 T201 - EAT WELL  06/21/2019 20:52 40.3  18.04  19.69 
 12 T802 - Scorchers  06/21/2019 21:26 40.3  19.66  19.68 
 13 T804 - Team FSHD Skyland Trail  06/21/2019 23:41 40.3  19.34  19.39 
 14 617 - SOLO.kiwi (Craig Harper)  06/22/2019 0:01 40.3  13.07  11.91 
 15 T416 - Team Rotary Raams Polio  06/22/2019 0:51 40.3  21.59  19.23 
 16 367 - Daniela Genovesi  06/22/2019 1:13 40.3  11.25  11.84 
 17 T408 - Radeln-fuer-Kinder (Cycling-for-Kids)  06/22/2019 1:24 40.3  16.12  19.15 
 18 416 - Leah Goldstein  06/22/2019 3:25 40.3  9.37  11.74 
 19 T808 - Antonia's Friends 2019  06/22/2019 4:53 40.3  16.45  18.76 
 20 623 - Ultra Paka Racing Team (Daniel Polman)  06/22/2019 5:14 40.3  10.33  11.66 
 21 T400 - Cantastic4  06/22/2019 5:50 40.3  16.68  18.6 
 22 622 - Thomas Odom-Team Kyle Pease Foundation  06/22/2019 6:44 40.3  9.48  11.59 
 23 T406 - Operation Walk Midwest  06/22/2019 8:25 40.3  17.4  18.31 
 24 T418 - The Opportunists  06/22/2019 10:24 40.3  16.91  18.11 
 25 329 - Peter Oyler  06/22/2019 10:35 40.3  8.67  11.44 
 26 615 - Philipp Amhof  06/22/2019 11:47 40.3  14.57  11.37 
 27 611 - Marcelo Soares " MIXIRICA "  06/22/2019 12:32 40.3  10.7  11.34 
 28 603 - Alan Bradley  06/22/2019 16:09 40.3  11.91  11.19 
 29 T410 - Soap-Aid  06/22/2019 16:14 40.3  17.15  17.47 
 30 529 - Isa Pulver  06/22/2019 18:10 40.3  12.53  11.09 
 31 T412 - Team Aspect  06/22/2019 19:51 40.3  16.56  17.11 
 32 T414 - Brazil Nuts  06/22/2019 20:11 40.3  14.74  17.08 
 33 T803 - Team EndoPark  06/22/2019 20:51 40.3  16.68  17.02 
 34 442 - Joe Barr  06/22/2019 21:12 40.3  12.15  10.98 
 35 612 - Markus K. Brandl  06/22/2019 23:27 40.3  11.19  10.88 
 36 411 - Geoff Brunner  06/22/2019 23:34 40.3  10.7  10.89 
 37 T405 - High Rollers  06/23/2019 0:05 40.3  15.3  16.68 
 38 T415 - TEAM FIRE VELO 935  06/23/2019 0:24 40.3  18.32  16.67 
 39 T202 - Integra Medical - BAA Racing  06/23/2019 0:45 40.3  12.66  16.6 
 40 T204 - Lucan CRC  06/23/2019 3:13 40.3  16.68  16.38 
 41 559 - Team Martin RAAM 2019 (Martin Bergmeister)  06/23/2019 3:42 40.3  6.5  10.72 
 42 T413 - TEAM BRASIL - SKIPPER  06/23/2019 3:59 40.3  16.01  16.34 
 43 T200 - AIR RELAX GoPro TEAM BRASIL  06/23/2019 4:16 40.3  14.74  16.28 
 44 510 - John C. Tarlton  06/23/2019 6:00 40.3  9.37  10.63 
 45 T402 - EA/WFP RAAM Team  06/23/2019 6:17 40.3  14.06  16.12 
 46 T206 - Project Linear Acceleration  06/23/2019 6:44 40.3  12.46  16.07 
 47 618 - GREGORY ROBINSON  06/23/2019 7:45 40.3  15.11  10.55 
 48 610 - Kabir Rachure  06/23/2019 7:46 40.3  11.25  10.56 
 49 T801 - Mind Over Matter  06/23/2019 9:53 40.3  14.74  15.83 
 50 T417 - Team4RAAM 2019 powered by TGW Living Logistics  06/23/2019 10:38 40.3  23.48  15.76 
 51 T806 - Team SuperMarrow  06/23/2019 11:29 40.3  16.56  15.7 
 52 568 - Alexandra Meixner  06/23/2019 13:01 40.3  9.02  10.35 
 53 T403 - EKJ Denmark  06/23/2019 15:28 40.3  13.58  15.35 
 54 399 - Valerio Zamboni  06/23/2019 20:17 40.3  9.34  10.11 
 55 604 - Chieko Ozawa  06/23/2019 22:01 40.3  8.64  10.04 
 56 424 - Team i RON man Veterans supporting Veterans  06/24/2019 1:20 40.3  9.48  9.94 
 57 161 - Seana Hogan  06/24/2019 13:15 40.3  8.76  9.54 
 58 T210 - Bike Wine Team  06/24/2019 14:52 40.3  13.43  13.68